Regional Weather Roundup
Issued by NWS

Home | Current Version | Previous Version | Text Only | Print | Product List | Glossary Off
Versions: 1 2 3 4 5 6 7 8 9 10 11 12 13 14 15 16 17 18 19 20 21 22 23 24 25 26 27 28 29 30 31 32 33 34 35 36 37 38 39 40 41 42 43 44 45 46 47 48 49 50

000
ASUS45 KTFX 261804
RWRMT
MONTANA HOURLY WEATHER ROUNDUP
NATIONAL WEATHER SERVICE GREAT FALLS MT
1104 AM MST FRI DEC 26 2014

NOTE: "FAIR" INDICATES FEW OR NO CLOUDS BELOW 12000 FEET WITH NO
SIGNIFICANT WEATHER AND/OR OBSTRUCTIONS TO VISIBILITY.

* THESE STATIONS ARE NOT UNDER NWS QUALITY CONTROL. THEY DO NOT
   REPORT WEATHER SUCH AS PRECIPITATION OR FOG.

MTZ001>007-043-261900-
WEST OF THE DIVIDE
CITY           SKY/WX    TMP DP  RH WIND       PRES   REMARKS
KALISPELL      PTSUNNY   23  19  85 SW5       30.15R WCI  16
MISSOULA       CLOUDY    27  23  85 CALM      30.16R
BUTTE          CLOUDY    16  12  84 CALM      30.04R
MULLAN PASS    LGT SNOW  19  14  81 VRB3      30.02S
* ESSEX        N/A       24  18  78 S4         N/A
* LINCOLN      N/A       22  16  78 NE5G11     N/A   WCI  15
* LOOKOUT PASS N/A       23  18  81 N/A        N/A
* POLSON       N/A       27  25  92 N/A        N/A
* RONAN APT    PTSUNNY   27  25  92 N/A        N/A
* SEELEY LAKE  N/A       22  19  88 N/A        N/A
* THOMP F APT  SUNNY     23   6  48 NW3G13     N/A
$$

MTZ008-052>055-261900-
SOUTHWEST MONTANA
CITY           SKY/WX    TMP DP  RH WIND       PRES   REMARKS
BOZEMAN        LGT SNOW  16  12  84 NE3       30.08R
DILLON         CLOUDY    18  10  71 SE5       30.04R WCI  11
* W YELLOWSTON PTCLDY    -3  -8  79 W1         N/A
* THREE FORKS  CLOUDY    18 -18  18 N/A        N/A
* BOULDER HILL N/A       17  12  81 N9G15      N/A   WCI   6
* MONIDA PASS  N/A       15   7  70 NW9        N/A   WCI   3
* RAYNOLDS PAS N/A       17 -29  11 N/A        N/A
* WHITEHALL    N/A       20  13  74 S3         N/A
* WISE RIVER   N/A       14   9  80 NW1        N/A
$$

MTZ009>010-012-014-046-048-049-054-261900-
EAST SLOPES AND CENTRAL MONTANA
CITY           SKY/WX    TMP DP  RH WIND       PRES   REMARKS
CUT BANK       SUNNY     12   9  88 W7        30.10R WCI   1
GREAT FALLS    LGT SNOW  19  16  88 NW10      30.12R VSB 3    WCI   8
HELENA         PTSUNNY   27  19  72 W6        30.11R WCI  20
* DEARBORN     N/A       22  20  92 N/A        N/A
* EAST GLACIER N/A       17  11  77 NW4        N/A
* MONARCH      N/A       15  11  84 NW8        N/A   WCI   4
* PENDROY      N/A       17  15  92 NW12       N/A   WCI   4
* ROGERS PASS  N/A       18  14  84 SE2        N/A
* SWEET GRASS  N/A       18  16  92 NW4        N/A
$$

MTZ011-013-016-021-035-040-045-047-050-051-261900-
NORTH CENTRAL MONTANA
CITY           SKY/WX    TMP DP  RH WIND       PRES   REMARKS
HAVRE          CLOUDY    21  18  88 NW7       30.13R WCI  12
LEWISTOWN      LGT SNOW  21  18  88 NW9       30.06R VSB 3/4  WCI  11
* N BAR RANCH  CLOUDY    23  16  74 NW20      30.01R WCI   8
* CHESTER      N/A       22  15  74 W3         N/A
* DENTON       N/A       20  17  88 NW9G20     N/A   WCI  10
* GEYSER       N/A       18  15  88 W19G24     N/A   WCI   2
* JUDITH GAP   N/A       19  19 100 VRB11      N/A   WCI   7
* LOMA         N/A       22  18  85 NW8        N/A   WCI  13
$$

MTZ017>020-022>027-061-062-261900-
NORTHEAST MONTANA
CITY           SKY/WX    TMP DP  RH WIND       PRES   REMARKS
GLASGOW        PTCLDY    23  16  74 E10       30.09S WCI  13
GLENDIVE       CLOUDY    19  16  88 CALM      30.13F
JORDAN         CLOUDY    25  19  78 SW8       30.07S WCI  16
SIDNEY         CLOUDY    16  12  84 E3        30.18F
WOLF POINT     CLOUDY    16  10  77 E12       30.15F WCI   3
* BEAVER HILL  N/A       24  15  68 SW8        N/A   WCI  15
* CIRCLE       N/A       26  21  81 S3         N/A
* LINDSAY DVD  N/A       23  17  78 SE10       N/A   WCI  13
* NAVAJO       N/A       13  10  88 SW4        N/A
* SACO         N/A       22  18  85 E3         N/A
$$

MTZ028>042-056>058-261900-
SOUTHCENTRAL AND SOUTHEAST MONTANA
CITY           SKY/WX    TMP DP  RH WIND       PRES   REMARKS
BAKER          CLOUDY    23  14  68 W6        30.12S WCI  16
BILLINGS       PTCLDY    16   9  74 SW16      30.05S WCI   1
LIVINGSTON     LGT SNOW  19  12  74 W10       30.04R WCI   8
MILES CITY     SUNNY     25  19  78 S9        30.10F WCI  16
* LAUREL APT   PTSUNNY   14   7  73 SW9        N/A   WCI   2
* ROUNDUP APT  PTSUNNY   12   7  80 N/A        N/A
* ALZADA       N/A       20  13  74 W4         N/A
* HYSHAM       N/A       21  17  84 W6         N/A   WCI  13
* LAME DEER    N/A      N/A N/A N/A N/A        N/A
* REED POINT   N/A        8   6  91 E4         N/A
* ROSCOE HILL  N/A       24   3  40 SW3        N/A
$$

REGIONAL REPORTS...DAKOTAS
CITY           SKY/WX    TMP DP  RH WIND       PRES   REMARKS
WILLISTON      CLOUDY    16  10  77 CALM      30.18F
DICKINSON      PTCLDY    23  12  63 N8        30.10F WCI  14
BEACH          CLOUDY    25  16  69 W8        30.11F WCI  16
CROSBY         CLOUDY     5   3  91 NE3       30.20S
WATFORD CITY   CLOUDY    14  10  84 CALM      30.15F
BISMARCK       HAZE      16  10  77 S3        30.20F
GRAND FORKS    LGT SNOW  19  16  88 NW12      30.19F WCI   6
FARGO          LGT SNOW  25  19  78 N14       30.16F WCI  13
BUFFALO SD     PTCLDY    21  12  68 NW13      30.03F WCI   8
RAPID CITY     LGT SNOW  19  14  81 NE10      30.10F WCI   8
$$

REGIONAL REPORTS...WYOMING/IDAHO/WASHINGTON
CITY           SKY/WX    TMP DP  RH WIND       PRES   REMARKS
GILLETTE       CLOUDY    18  12  77 NE5       30.03S WCI  11
SHERIDAN       PTCLDY    10   3  73 N3        30.04F
CODY           PTSUNNY   19  12  74 CALM      30.00F
YELLOWSTONE LA PTCLDY     9   5  84 E6        29.92S WCI  -1
SALMON         CLOUDY    21  18  88 CALM      30.12S
MULLAN PASS    LGT SNOW  19  14  81 VRB3      30.02S
SAND POINT     SUNNY     27  27 100 CALM      30.24R
SPOKANE        FOG       25  21  85 CALM      30.23R

$$




USA.gov is the U.S. government's official web portal to all federal, state and local government web resources and services.